STAR ONE C4

Last updated on Sun Apr 12 2026 00:02:53 GMT+0000 (Coordinated Universal Time)

1 40733U 15034B 26101.50682399 -.00000264 00000+0 00000+0 0 9993 2 40733 0.0257 1.6073 0002719 12.9705 297.6004 1.00273865 39342
UTC large
Height (km)
Speed (km/s)
/
Latitude / Longitude
Inclination (degrees)
Orbital Period (minutes)
Azimuth
Elevation
Range (km)
Doppler Factor

Next 0 passes for location: London (51.5072 / 0.1276)

Sorry there are no passes over London.
STAR ONE C4